2025-197A

Last updated on Mon Oct 06 2025 00:02:05 GMT+0000 (Coordinated Universal Time)

1 65488U 25197A 25278.39996132 .00010589 00000+0 47126-3 0 9996 2 65488 97.4106 103.7297 0013958 173.8196 186.3215 15.21565963 4553

Satellite not in orbit

2025-197A